User: anonymous   Login
Location: Marseilles
(40.7010°N, 83.3930°W)
Time: 19:40:44
(UTC-04:00)
Language:

Cosmos 1459 Rocket - Orbit

View from above orbital plane
View from above orbital plane
View from above satellite
View from above satellite

Ground track
Ground track

The orbit data is extracted from the following two-line orbital elements,

1 14059U 83042B   15182.78493291  .00000091  00000-0  73763-4 0  9996
2 14059 082.9713 233.6302 0044025 118.0333 019.0728 13.78517683617059
Epoch (UTC): 01 July 2015 18:50:18
Eccentricity: 0.0044025
inclination: 82.9713°
perigee height: 937 km
apogee height: 1001 km
right ascension of ascending node: 233.6302°
argument of perigee: 118.0333°
revolutions per day: 13.78517683
mean anomaly at epoch: 19.0728°
orbit number at epoch: 61705

The dashed part of the orbit path shows where the satellite is in the earth's shadow,  

DLR